User: anonymous   Login
Location: Unspecified
(0.0000°N, 0.0000°E)
Time: 09:23:14
(UTC+00:00)
Language:

HEATHSAT - Orbit

View from above orbital plane
View from above orbital plane
View from above satellite
View from above satellite

Ground track
Ground track

The orbit data is extracted from the following two-line orbital elements,

1 22827U 93061E   17086.90484812 +.00000026 +00000-0 +27004-4 0  9993
2 22827 098.8057 057.0117 0009226 158.8731 258.4997 14.31199104226392
Epoch (UTC): 27 March 2017 21:42:58
Eccentricity: 0.0009226
inclination: 98.8057°
perigee height: 781 km
apogee height: 794 km
right ascension of ascending node: 57.0117°
argument of perigee: 158.8731°
revolutions per day: 14.31199104
mean anomaly at epoch: 258.4997°
orbit number at epoch: 22639

The dashed part of the orbit path shows where the satellite is in the earth's shadow,  

DLR